When you browse on this site, cookies collect data to enhance your experience and personalize the content and advertising you see.
Visit our Privacy Policy to learn more. By continuing to use the site, you agree to this use of cookies and data.
  • In France
  • List of Countries
  • For 7 days
  • Water Temperature
  • Weather Map
  • Weather Widgets
  • user-avatar
    Login

    Hourly Weather Traiguen

    Today, 21 September, Saturday

    Time Temperature Precipitation Wind Pressure Humidity
    00:00 +3°C° 0 mm 0 mps 752 mmHg 94%
    01:00 +3°C° 0 mm 0 mps 752 mmHg 94%
    02:00 +3°C° 0 mm 0 mps 752 mmHg 94%
    03:00 +2°C° 0 mm 0 mps 751 mmHg 94%
    04:00 +2°C° 0 mm 0 mps 751 mmHg 95%
    05:00 +3°C° 0 mm 0 mps 751 mmHg 93%
    06:00 +4°C° 0 mm 0 mps 751 mmHg 91%
    07:00 +5°C° 0 mm 0 mps 751 mmHg 89%
    08:00 +6°C° 0 mm 0 mps 751 mmHg 85%
    09:00 +8°C° 0 mm 1 mps 751 mmHg 82%
    10:00 +10°C° 0 mm 1 mps 751 mmHg 78%
    11:00 +10°C° 0 mm 2 mps 751 mmHg 73%
    12:00 +11°C° 0 mm 3 mps 751 mmHg 68%
    13:00 +13°C° 0 mm 3 mps 750 mmHg 63%
    14:00 +12°C° 0 mm 4 mps 750 mmHg 64%
    15:00 +12°C° 0 mm 4 mps 750 mmHg 65%
    16:00 +12°C° 0 mm 4 mps 749 mmHg 66%
    17:00 +10°C° 0 mm 3 mps 749 mmHg 74%
    18:00 +8°C° 0 mm 3 mps 749 mmHg 82%
    19:00 +6°C° 0 mm 2 mps 749 mmHg 90%
    20:00 +5°C° 0 mm 2 mps 749 mmHg 91%
    21:00 +4°C° 0 mm 2 mps 749 mmHg 93%
    22:00 +4°C° 0 mm 1 mps 748 mmHg 95%
    23:00 +4°C° 0 mm 1 mps 748 mmHg 95%

    Tomorrow, 22 September, Sunday

    Time Temperature Precipitation Wind Pressure Humidity
    00:00 +4°C° 0 mm 1 mps 748 mmHg 95%
    01:00 +3°C° 0 mm 1 mps 747 mmHg 96%
    02:00 +3°C° 0 mm 1 mps 747 mmHg 96%
    03:00 +3°C° 0 mm 1 mps 747 mmHg 96%
    04:00 +3°C° 0 mm 1 mps 747 mmHg 96%
    05:00 +3°C° 0 mm 1 mps 747 mmHg 94%
    06:00 +4°C° 0 mm 1 mps 747 mmHg 92%
    07:00 +5°C° 0 mm 1 mps 747 mmHg 90%
    08:00 +7°C° 0 mm 1 mps 747 mmHg 80%
    09:00 +9°C° 0 mm 2 mps 747 mmHg 71%
    10:00 +12°C° 0 mm 2 mps 747 mmHg 61%
    11:00 +14°C° 0 mm 2 mps 747 mmHg 58%
    12:00 +15°C° 0 mm 2 mps 747 mmHg 55%
    13:00 +17°C° 0 mm 2 mps 746 mmHg 52%
    14:00 +16°C° 0 mm 2 mps 746 mmHg 55%
    15:00 +16°C° 0 mm 3 mps 747 mmHg 59%
    16:00 +16°C° 0 mm 3 mps 747 mmHg 62%
    17:00 +13°C° 0 mm 2 mps 747 mmHg 71%
    18:00 +9°C° 0 mm 2 mps 748 mmHg 81%
    19:00 +6°C° 0 mm 2 mps 748 mmHg 90%
    20:00 +6°C° 0 mm 1 mps 749 mmHg 91%
    21:00 +5°C° 0 mm 1 mps 749 mmHg 92%
    22:00 +4°C° 0 mm 1 mps 749 mmHg 93%
    23:00 +4°C° 0 mm 1 mps 750 mmHg 93%

    Day after tomorrow, 23 September, Monday

    Time Temperature Precipitation Wind Pressure Humidity
    00:00 +4°C° 0 mm 1 mps 750 mmHg 93%
    01:00 +4°C° 0 mm 1 mps 750 mmHg 93%
    02:00 +3°C° 0 mm 1 mps 750 mmHg 94%
    03:00 +3°C° 0 mm 1 mps 750 mmHg 95%
    04:00 +3°C° 0 mm 1 mps 751 mmHg 96%
    05:00 +4°C° 0 mm 1 mps 751 mmHg 93%
    06:00 +4°C° 0 mm 1 mps 751 mmHg 90%
    07:00 +5°C° 0 mm 1 mps 751 mmHg 87%
    08:00 +8°C° 0 mm 1 mps 751 mmHg 78%
    09:00 +9°C° 0 mm 2 mps 751 mmHg 69%
    10:00 +13°C° 0 mm 2 mps 752 mmHg 60%
    11:00 +14°C° 0 mm 3 mps 751 mmHg 58%
    12:00 +16°C° 0 mm 3 mps 751 mmHg 57%
    13:00 +18°C° 0 mm 3 mps 751 mmHg 55%
    14:00 +17°C° 0 mm 3 mps 751 mmHg 58%
    15:00 +17°C° 0 mm 4 mps 751 mmHg 61%
    16:00 +17°C° 0 mm 4 mps 750 mmHg 64%
    17:00 +13°C° 0 mm 3 mps 751 mmHg 72%
    18:00 +11°C° 0 mm 3 mps 751 mmHg 80%
    19:00 +8°C° 0 mm 2 mps 751 mmHg 87%
    20:00 +8°C° 0 mm 2 mps 751 mmHg 89%
    21:00 +7°C° 0 mm 2 mps 751 mmHg 91%
    22:00 +7°C° 0 mm 2 mps 750 mmHg 94%
    23:00 +7°C° 0 mm 2 mps 750 mmHg 94%

    24 September, Tuesday

    Time Temperature Precipitation Wind Pressure Humidity
    00:00 +6°C° 0 mm 2 mps 750 mmHg 95%
    01:00 +6°C° 0 mm 2 mps 749 mmHg 96%
    02:00 +6°C° 0 mm 2 mps 749 mmHg 97%
    03:00 +6°C° 0 mm 2 mps 748 mmHg 97%
    04:00 +5°C° 0 mm 2 mps 748 mmHg 97%
    05:00 +6°C° 0 mm 2 mps 748 mmHg 96%
    06:00 +6°C° 0 mm 2 mps 747 mmHg 95%
    07:00 +7°C° 0 mm 2 mps 747 mmHg 94%
    08:00 +9°C° 0 mm 2 mps 747 mmHg 86%
    09:00 +11°C° 0 mm 3 mps 747 mmHg 79%
    10:00 +14°C° 0 mm 3 mps 746 mmHg 71%
    11:00 +17°C° 0 mm 3 mps 746 mmHg 67%
    12:00 +19°C° 0 mm 3 mps 745 mmHg 62%
    13:00 +21°C° 0 mm 3 mps 745 mmHg 58%
    14:00 +21°C° 0 mm 3 mps 745 mmHg 61%
    15:00 +21°C° 0 mm 3 mps 744 mmHg 64%
    16:00 +21°C° 0 mm 3 mps 744 mmHg 67%
    17:00 +18°C° 0 mm 2 mps 744 mmHg 75%
    18:00 +16°C° 0 mm 2 mps 744 mmHg 82%
    19:00 +13°C° 0 mm 1 mps 745 mmHg 90%
    20:00 +13°C° 0 mm 1 mps 745 mmHg 91%
    21:00 +12°C° 0 mm 1 mps 745 mmHg 92%
    22:00 +11°C° 0 mm 1 mps 745 mmHg 93%
    23:00 +10°C° 0 mm 1 mps 745 mmHg 94%

    25 September, Wednesday

    Time Temperature Precipitation Wind Pressure Humidity
    00:00 +10°C° 0 mm 1 mps 745 mmHg 95%
    01:00 +9°C° 0 mm 1 mps 745 mmHg 95%
    02:00 +9°C° 0 mm 1 mps 744 mmHg 96%
    03:00 +8°C° 0 mm 1 mps 744 mmHg 96%
    04:00 +8°C° 0 mm 1 mps 744 mmHg 96%
    05:00 +8°C° 0 mm 1 mps 744 mmHg 94%
    06:00 +9°C° 0 mm 1 mps 744 mmHg 92%
    07:00 +8°C° 0 mm 0 mps 743 mmHg 91%
    08:00 +13°C° 0 mm 1 mps 743 mmHg 79%
    09:00 +16°C° 0 mm 1 mps 743 mmHg 68%
    10:00 +20°C° 0 mm 1 mps 743 mmHg 57%
    11:00 +21°C° 0 mm 1 mps 743 mmHg 55%
    12:00 +23°C° 0 mm 1 mps 743 mmHg 52%
    13:00 +24°C° 0 mm 1 mps 743 mmHg 50%
    14:00 +24°C° 0 mm 1 mps 742 mmHg 55%
    15:00 +22°C° 0 mm 0 mps 742 mmHg 60%
    16:00 +22°C° 0 mm 0 mps 742 mmHg 65%
    17:00 +19°C° 0 mm 0 mps 742 mmHg 72%
    18:00 +16°C° 0 mm 0 mps 742 mmHg 79%
    19:00 +14°C° 0 mm 0 mps 743 mmHg 86%
    20:00 +13°C° 0 mm 0 mps 743 mmHg 88%
    21:00 +13°C° 0 mm 0 mps 743 mmHg 90%
    22:00 +13°C° 0 mm 1 mps 743 mmHg 91%
    23:00 +13°C° 0 mm 1 mps 743 mmHg 92%

    26 September, Thursday

    Time Temperature Precipitation Wind Pressure Humidity
    00:00 +13°C° 0 mm 1 mps 742 mmHg 94%
    01:00 +12°C° 0 mm 1 mps 742 mmHg 95%
    02:00 +12°C° 0 mm 1 mps 742 mmHg 95%
    03:00 +11°C° 0 mm 1 mps 742 mmHg 95%
    04:00 +11°C° 0 mm 1 mps 742 mmHg 95%
    05:00 +11°C° 0 mm 1 mps 742 mmHg 93%
    06:00 +12°C° 0 mm 2 mps 742 mmHg 91%
    07:00 +11°C° 0 mm 3 mps 742 mmHg 89%
    08:00 +12°C° 0 mm 3 mps 742 mmHg 83%
    09:00 +14°C° 0 mm 4 mps 742 mmHg 77%
    10:00 +15°C° 0 mm 4 mps 742 mmHg 71%
    11:00 +17°C° 0 mm 4 mps 742 mmHg 67%
    12:00 +17°C° 0 mm 5 mps 742 mmHg 63%
    13:00 +20°C° 0 mm 5 mps 741 mmHg 59%
    14:00 +19°C° 0 mm 5 mps 741 mmHg 62%
    15:00 +17°C° 0 mm 5 mps 741 mmHg 64%
    16:00 +16°C° 0 mm 5 mps 741 mmHg 67%
    17:00 +14°C° 0 mm 4 mps 742 mmHg 73%
    18:00 +12°C° 0 mm 4 mps 742 mmHg 78%
    19:00 +11°C° 0 mm 3 mps 743 mmHg 83%
    20:00 +10°C° 0 mm 3 mps 743 mmHg 86%
    21:00 +9°C° 0 mm 3 mps 743 mmHg 89%
    22:00 +9°C° 0 mm 3 mps 743 mmHg 92%
    23:00 +9°C° 0 mm 3 mps 744 mmHg 90%
    Show more